Flag for Germany Weather past 2 weeks in Weyhe, Lower Saxony, Germany

Now
43 °F

Mostly cloudy.


Feels Like: 36 °F
Forecast: 35 / 44 °F
Wind: 12 mph from Southwest

Location: Bremen Airport

Current Time: Mar 3, 2015 at 1:54:24 PM

Latest Report: Mar 3, 2015 at 1:20 PM


Visibility: N/A

Pressure: 29.92 "Hg

Humidity: 81%

Dew point: 37 °F

Location of WeyheLocation

Historic Weather in Weyhe — Graph

°F

Weyhe temperature yesterday

Maximum temperature yesterday: 48 °F (at 3:20 PM)
Minimum temperature yesterday: 34 °F (at 6:50 PM)
Average temperature yesterday: 40 °F

Past Weeks' High & Low Weather Summary

 TemperatureHumidityPressure
High50 °F (Mar 1, 11:50 AM)100% (Feb 17, 3:20 AM)30.72 "Hg (Feb 17, 3:20 AM)
Low27 °F (Feb 17, 5:50 AM)50% (Mar 2, 3:50 PM)29.27 "Hg (Feb 21, 6:50 AM)
Average39 °F86%29.87 "Hg
* Reported Feb 16 12:20 PM — Mar 3 12:20 PM, Weyhe, Weather by CustomWeather, © 2015

Note: Actual official high and low records may vary slightly from our data, if they occured in-between our weather recording intervals... More about our weather records

Advertising

Weyhe weather history for previous 24 hours

 ConditionsComfort  
Time TempWeatherWind HumidityBarometerVisibility
12:20 PM
Tue, Mar 3
43 °FPartly sunny.20 mph76%29.95 "HgN/A
11:50 AM43 °FPartly sunny.21 mph76%29.95 "HgN/A
11:20 AM43 °FPartly sunny.20 mph76%29.95 "HgN/A
10:50 AM43 °FScattered clouds.18 mph76%29.95 "HgN/A
10:20 AM41 °FPartly sunny.17 mph81%29.95 "HgN/A
9:50 AM39 °FBroken clouds.15 mph87%29.95 "HgN/A
9:20 AM37 °FPartly sunny.14 mph87%29.95 "HgN/A
8:50 AM36 °FScattered clouds.14 mph93%29.95 "HgN/A
8:20 AM36 °FPassing clouds.13 mph93%29.92 "HgN/A
7:50 AM36 °FPassing clouds.15 mph87%29.92 "HgN/A
7:20 AM36 °FPassing clouds.14 mph87%29.92 "HgN/A
6:50 AM34 °FPassing clouds.13 mph87%29.92 "HgN/A
6:20 AM36 °FPassing clouds.13 mph87%29.92 "HgN/A
5:50 AM36 °FPassing clouds.13 mph87%29.92 "HgN/A
5:20 AM36 °FPassing clouds.14 mph87%29.92 "HgN/A
4:50 AM36 °FPassing clouds.13 mph87%29.89 "HgN/A
4:20 AM36 °FPassing clouds.14 mph87%29.89 "HgN/A
3:50 AM36 °FPassing clouds.15 mph87%29.89 "HgN/A
3:20 AM36 °FPassing clouds.16 mph87%29.86 "HgN/A
2:50 AM36 °FPassing clouds.16 mph87%29.86 "HgN/A
2:20 AM36 °FPassing clouds.9 mph93%29.83 "HgN/A
1:50 AM36 °FPassing clouds.16 mph93%29.83 "HgN/A
1:20 AM36 °FPassing clouds.12 mph93%29.80 "HgN/A
12:50 AM34 °FPartly cloudy.10 mph100%29.80 "Hg4 mi
12:20 AM34 °FLots of rain. Passing clouds.17 mph93%29.80 "Hg2 mi
11:50 PM
Mon, Mar 2
34 °FSprinkles. Passing clouds.16 mph100%29.77 "Hg5 mi
11:20 PM36 °FSprinkles. Passing clouds.20 mph93%29.77 "Hg5 mi
10:50 PM34 °FPassing clouds.16 mph100%29.74 "HgN/A
10:20 PM34 °FPartly cloudy.15 mph100%29.74 "HgN/A
9:50 PM36 °FSprinkles. Passing clouds.17 mph93%29.71 "HgN/A
9:20 PM36 °FPassing clouds.16 mph93%29.71 "HgN/A
8:50 PM34 °FPassing clouds.10 mph100%29.68 "HgN/A
8:20 PM34 °FPassing clouds.13 mph100%29.68 "HgN/A
7:50 PM34 °FPassing clouds.13 mph93%29.68 "HgN/A
7:20 PM34 °FPassing clouds.9 mph100%29.68 "HgN/A
6:50 PM34 °FRain showers. Passing clouds.28 mph93%29.68 "Hg2 mi
6:20 PM43 °FPassing clouds.13 mph66%29.62 "HgN/A
5:50 PM43 °FBroken clouds.15 mph61%29.59 "HgN/A
5:20 PM43 °FPartly sunny.15 mph66%29.59 "HgN/A
4:50 PM45 °FScattered clouds.18 mph57%29.59 "HgN/A
4:20 PM46 °FScattered clouds.22 mph50%29.59 "HgN/A
3:50 PM46 °FScattered clouds.24 mph50%29.56 "HgN/A
3:20 PM48 °FScattered clouds.18 mph58%29.56 "HgN/A
2:50 PM45 °FScattered clouds.21 mph61%29.56 "HgN/A
2:20 PM46 °FScattered clouds.22 mph57%29.56 "HgN/A
1:50 PM46 °FScattered clouds.25 mph57%29.56 "HgN/A
1:20 PM46 °FScattered clouds.26 mph57%29.53 "HgN/A
Weather by CustomWeather, © 2015

See weather overviewHow to use our weather pages